KD8BMB Weather Reports


time (UTC)temp
C
wind
direction
speed
KPH
gust
KPH
rain 1hr
cm
rain 24hr
cm
rain mn
cm
humidity
%
barometer
mb
20260904232647 24 10 3.2 8.0 0.00 0.18 0.18 94 1013.7
20260904232143 24 56 1.6 1.6 0.00 0.18 0.18 94 1013.7
20260904231638 24 302 1.6 3.2 0.00 0.18 0.18 94 1013.8
20260904231133 24 13 1.6 1.6 0.00 0.18 0.18 94 1013.9
20260904230632 24 5 1.6 3.2 0.00 0.18 0.18 93 1013.5
20260904230128 25 338 3.2 8.0 0.00 0.18 0.18 93 1013.3
20260904225626 25 112 4.8 8.0 0.00 0.18 0.18 93 1013.4
20260904225120 25 52 0.0 0.0 0.00 0.18 0.18 92 1013.3
20260904224615 25 74 1.6 3.2 0.00 0.18 0.18 92 1013.3
20260904224110 25 305 0.0 0.0 0.00 0.18 0.18 91 1013.0
20260904223609 25 38 0.0 0.0 0.00 0.18 0.18 90 1013.1
20260904223105 26 54 1.6 3.2 0.00 0.18 0.18 86 1013.2
20260904222601 26 354 0.0 0.0 0.00 0.18 0.18 85 1012.7
20260904222056 26 208 0.0 0.0 0.00 0.18 0.18 85 1013.0
20260904221556 26 319 1.6 1.6 0.00 0.18 0.18 84 1013.0
20260904221056 26 345 0.0 0.0 0.00 0.18 0.18 84 1012.7
20260904220550 26 325 0.0 0.0 0.00 0.18 0.18 84 1013.0
20260904220046 26 285 0.0 0.0 0.00 0.18 0.18 83 1012.9
20260904215545 26 305 0.0 0.0 0.00 0.18 0.18 84 1012.9
20260904215036 26 285 0.0 0.0 0.00 0.18 0.18 82 1012.7
20260904214531 26 314 0.0 0.0 0.00 0.18 0.18 82 1012.7
20260904214026 26 14 0.0 0.0 0.00 0.18 0.18 84 1012.9
20260904213524 26 326 0.0 0.0 0.00 0.18 0.18 83 1012.6
20260904213016 26 310 0.0 1.6 0.00 0.18 0.18 83 1012.6
20260904212515 26 315 3.2 4.8 0.00 0.18 0.18 82 1013.0
20260904212010 26 290 0.0 0.0 0.00 0.18 0.18 82 1012.6
20260904211504 26 54 0.0 0.0 0.00 0.18 0.18 81 1012.7
20260904211000 27 336 0.0 0.0 0.00 0.18 0.18 80 1012.5
20260904210459 27 295 0.0 0.0 0.00 0.18 0.18 80 1012.5
20260904205955 26 290 0.0 0.0 0.00 0.18 0.18 80 1012.4
20260904205450 27 238 0.0 1.6 0.00 0.18 0.18 79 1012.6
20260904204947 26 334 0.0 0.0 0.00 0.18 0.18 82 1012.6
20260904204443 26 257 3.2 3.2 0.00 0.18 0.18 83 1012.6
20260904203939 26 226 3.2 8.0 0.00 0.18 0.18 83 1013.0
20260904203435 26 242 1.6 3.2 0.00 0.18 0.18 83 1013.1
20260904202930 25 292 1.6 3.2 0.00 0.18 0.18 84 1012.7
20260904202426 26 217 0.0 1.6 0.00 0.18 0.18 85 1012.7
20260904201922 26 244 3.2 4.8 0.00 0.18 0.18 83 1012.7
20260904201417 26 250 3.2 4.8 0.00 0.18 0.18 82 1012.6
20260904200913 26 329 0.0 0.0 0.00 0.18 0.18 83 1012.6
20260904200411 25 232 0.0 1.6 0.00 0.18 0.18 84 1012.9
20260904195907 26 304 3.2 3.2 0.00 0.18 0.18 82 1012.7
20260904195404 26 305 3.2 3.2 0.00 0.18 0.18 83 1013.0
20260904194859 26 331 1.6 3.2 0.00 0.18 0.18 83 1013.1
20260904194359 26 288 0.0 0.0 0.00 0.18 0.18 83 1013.1
20260904193854 26 343 0.0 0.0 0.00 0.18 0.18 83 1013.2
20260904193349 26 247 3.2 4.8 0.00 0.18 0.18 82 1013.2
20260904192844 26 214 1.6 3.2 0.00 0.18 0.18 82 1013.4
20260904192340 26 266 1.6 3.2 0.00 0.18 0.18 82 1013.3
20260904191836 25 300 3.2 4.8 0.00 0.18 0.18 82 1013.5
20260904191332 26 235 4.8 8.0 0.00 0.18 0.18 84 1013.6
20260904190829 26 306 1.6 3.2 0.00 0.18 0.18 84 1013.5
20260904190324 25 298 0.0 0.0 0.00 0.18 0.18 86 1013.5
20260904185820 26 298 1.6 3.2 0.00 0.18 0.18 86 1013.5
20260904185316 25 277 0.0 1.6 0.00 0.18 0.18 88 1013.4
20260904184815 25 290 1.6 3.2 0.00 0.18 0.18 89 1013.4
20260904184310 25 262 0.0 0.0 0.00 0.18 0.18 89 1013.6
20260904183805 25 295 0.0 0.0 0.00 0.18 0.18 91 1013.5
20260904183300 25 259 0.0 0.0 0.00 0.18 0.18 90 1013.5
20260904182755 25 293 1.6 1.6 0.00 0.18 0.18 92 1013.6
20260904182250 24 280 1.6 1.6 0.00 0.18 0.18 93 1013.6
20260904181746 24 304 0.0 0.0 0.00 0.18 0.18 94 1013.7
20260904181246 24 226 0.0 1.6 0.00 0.18 0.18 95 1013.4
20260904180741 24 307 0.0 0.0 0.00 0.18 0.18 96 1013.5
20260904180237 24 320 0.0 3.2 0.00 0.18 0.18 95 1013.7
20260904175735 24 69 0.0 0.0 0.00 0.18 0.18 96 1013.8
20260904175234 23 272 0.0 0.0 0.00 0.18 0.18 98 1013.7
20260904174729 23 294 0.0 0.0 0.00 0.18 0.18 99 1013.6
20260904174225 23 289 0.0 0.0 0.00 0.18 0.18 99 1013.7
20260904173721 22 277 1.6 3.2 0.00 0.18 0.18 99 1013.8
20260904173220 22 296 0.0 0.0 0.00 0.18 0.18 99 1013.9
20260904172717 22 287 0.0 0.0 0.00 0.18 0.18 99 1014.1
20260904172216 22 270 0.0 0.0 0.00 0.18 0.18 99 1014.0
20260904171712 22 323 3.2 4.8 0.00 0.18 0.18 99 1014.1
20260904171206 22 262 0.0 0.0 0.00 0.18 0.18 99 1013.9
20260904170703 22 355 0.0 0.0 0.00 0.18 0.18 99 1014.0
20260904170159 22 299 0.0 0.0 0.00 0.18 0.18 99 1013.8
20260904165657 22 296 0.0 0.0 0.00 0.18 0.18 99 1013.9
20260904165157 22 253 0.0 0.0 0.00 0.18 0.18 99 1013.7
20260904164652 22 253 0.0 0.0 0.00 0.18 0.18 99 1014.1
20260904164147 22 334 1.6 3.2 0.00 0.18 0.18 99 1014.0
20260904163642 22 302 0.0 0.0 0.00 0.18 0.18 99 1014.0
20260904163132 22 50 0.0 0.0 0.00 0.18 0.18 99 1014.0
20260904162631 22 280 0.0 0.0 0.00 0.18 0.18 99 1013.9
20260904162126 22 249 0.0 0.0 0.00 0.18 0.18 99 1014.3
20260904161622 21 307 0.0 0.0 0.00 0.18 0.18 99 1014.2
20260904161116 21 330 0.0 0.0 0.00 0.18 0.18 99 1014.4
20260904160612 21 254 0.0 0.0 0.00 0.18 0.18 99 1014.6
20260904160108 21 37 0.0 0.0 0.00 0.18 0.18 99 1014.7
20260904155602 21 334 0.0 0.0 0.00 0.18 0.18 99 1014.8
20260904155056 21 54 0.0 0.0 0.00 0.18 0.18 99 1014.9
20260904154550 21 305 3.2 3.2 0.00 0.18 0.18 99 1015.0
20260904154045 21 288 0.0 0.0 0.00 0.18 0.18 99 1014.9
20260904153544 21 300 1.6 1.6 0.00 0.18 0.18 99 1015.2
20260904153041 21 299 0.0 1.6 0.00 0.18 0.18 99 1015.3
20260904152536 21 296 0.0 1.6 0.00 0.18 0.18 99 1015.4
20260904152032 21 328 0.0 0.0 0.00 0.18 0.18 99 1015.2
20260904151526 21 257 0.0 0.0 0.00 0.18 0.18 99 1015.4
20260904151020 21 338 0.0 0.0 0.00 0.18 0.18 99 1015.5
20260904150515 20 315 0.0 0.0 0.00 0.18 0.18 99 1015.5
20260904150010 20 293 0.0 0.0 0.00 0.18 0.18 99 1015.5
20260904145504 20 308 0.0 0.0 0.00 0.18 0.18 99 1015.5
20260904144959 20 280 0.0 0.0 0.00 0.18 0.18 99 1015.6
20260904144455 20 205 0.0 0.0 0.00 0.18 0.18 99 1015.5
20260904143950 20 239 0.0 0.0 0.00 0.18 0.18 99 1015.8
20260904143446 20 25 0.0 0.0 0.00 0.18 0.18 99 1015.2
20260904142942 20 320 0.0 0.0 0.00 0.18 0.18 99 1015.2
20260904142439 20 313 0.0 0.0 0.00 0.18 0.18 99 1015.2
20260904141933 20 314 0.0 0.0 0.00 0.18 0.18 99 1015.4
20260904141428 20 352 0.0 0.0 0.00 0.18 0.18 99 1015.2
20260904140925 20 60 0.0 0.0 0.18 0.18 0.18 99 1014.8
20260904140425 20 13 0.0 0.0 0.18 0.18 0.18 99 1014.6
20260904135924 20 140 0.0 0.0 0.18 0.18 0.18 99 1014.8
20260904135424 20 67 0.0 0.0 0.00 0.15 0.15 99 1014.8
20260904134920 20 338 0.0 0.0 0.00 0.15 0.15 99 1015.1
20260904134420 20 310 0.0 0.0 0.13 0.15 0.15 99 1015.1
20260904133915 20 36 0.0 0.0 0.00 0.13 0.13 99 1015.1
20260904133414 19 329 0.0 0.0 0.00 0.13 0.13 99 1015.5
20260904132910 19 283 0.0 0.0 0.00 0.13 0.13 99 1015.4
20260904132405 19 287 0.0 0.0 0.00 0.13 0.13 99 1015.5
20260904131904 19 320 0.0 0.0 0.00 0.13 0.13 99 1015.8
20260904131400 19 308 0.0 0.0 0.00 0.13 0.13 99 1015.8
20260904130855 19 271 0.0 0.0 0.00 0.13 0.13 99 1015.8
20260904130354 19 278 0.0 0.0 0.00 0.13 0.13 99 1015.9
20260904125849 19 294 0.0 0.0 0.00 0.13 0.13 99 1016.0
20260904125346 19 306 0.0 0.0 0.00 0.13 0.13 99 1015.9
20260904124845 19 310 0.0 0.0 0.00 0.13 0.13 99 1016.1
20260904124342 19 340 0.0 0.0 0.18 0.13 0.13 99 1016.0
20260904123836 19 294 0.0 0.0 0.18 0.13 0.13 99 1015.8
20260904123332 19 289 0.0 0.0 0.18 0.10 0.10 99 1015.4
20260904122826 19 276 0.0 0.0 0.18 0.10 0.10 99 1015.2
20260904122321 19 289 0.0 0.0 0.00 0.08 0.08 99 1015.1
20260904121816 19 15 0.0 0.0 0.13 0.08 0.08 99 1015.0
20260904121312 19 307 0.0 0.0 0.13 0.08 0.08 99 1015.4
20260904120809 19 286 0.0 0.0 0.18 0.05 0.05 99 1015.4
20260904120304 19 315 0.0 0.0 0.18 0.05 0.05 99 1015.6
20260904115759 19 305 0.0 0.0 0.00 0.03 0.03 99 1015.2
20260904115254 19 296 0.0 0.0 0.00 0.03 0.03 99 1015.1
20260904114749 19 323 0.0 0.0 0.00 0.03 0.03 99 1015.2
20260904114248 19 346 0.0 0.0 0.13 0.03 0.03 99 1015.1
20260904113744 18 33 0.0 0.0 0.13 0.03 0.03 99 1014.9
20260904113243 18 309 0.0 0.0 0.00 0.00 0.00 99 1015.0
20260904112738 18 339 0.0 0.0 0.00 0.00 0.00 99 1014.9
20260904112233 18 264 0.0 0.0 0.00 0.00 0.00 99 1014.7
20260904111729 18 279 0.0 0.0 0.00 0.00 0.00 99 1014.7
20260904111225 18 297 0.0 0.0 0.00 0.00 0.00 99 1014.4
20260904110720 18 122 0.0 0.0 0.00 0.00 0.00 99 1014.3
20260904110219 18 81 0.0 0.0 0.00 0.00 0.00 99 1014.3
20260904105714 18 347 0.0 0.0 0.00 0.00 0.00 99 1014.4
20260904105209 18 220 0.0 0.0 0.00 0.00 0.00 99 1014.3
20260904104704 18 302 0.0 0.0 0.00 0.00 0.00 99 1014.0
20260904104200 18 75 0.0 0.0 0.00 0.00 0.00 99 1014.2
20260904103657 18 49 0.0 0.0 0.00 0.00 0.00 99 1014.2
20260904103151 18 64 0.0 0.0 0.00 0.00 0.00 99 1014.1
20260904102647 18 297 0.0 0.0 0.00 0.00 0.00 99 1014.1
20260904102142 18 13 0.0 0.0 0.00 0.00 0.00 99 1013.9
20260904101639 18 76 0.0 0.0 0.00 0.00 0.00 99 1013.8
20260904101134 18 290 0.0 0.0 0.00 0.00 0.00 99 1014.0
20260904100630 18 287 0.0 0.0 0.00 0.00 0.00 99 1014.1
20260904100125 18 275 0.0 0.0 0.00 0.00 0.00 99 1013.9
20260904095620 18 65 0.0 0.0 0.00 0.00 0.00 99 1013.8
20260904095119 18 75 0.0 0.0 0.00 0.00 0.00 99 1013.9
20260904094615 18 324 0.0 0.0 0.00 0.00 0.00 99 1013.7
20260904094110 18 272 0.0 0.0 0.00 0.00 0.00 99 1013.4
20260904093607 18 173 0.0 0.0 0.00 0.00 0.00 99 1013.4
20260904093106 18 103 0.0 0.0 0.00 0.00 0.00 99 1013.7
20260904092603 18 74 1.6 3.2 0.00 0.00 0.00 99 1013.6
20260904092059 18 80 0.0 0.0 0.00 0.00 0.00 99 1013.9
20260904091555 18 325 0.0 0.0 0.00 0.00 0.00 99 1014.1
20260904091054 18 39 0.0 0.0 0.00 0.00 0.00 99 1014.3
20260904090550 18 53 0.0 0.0 0.00 0.00 0.00 99 1014.4
20260904090045 18 311 0.0 0.0 0.00 0.00 0.00 99 1014.4
20260904085540 18 76 0.0 0.0 0.00 0.00 0.00 99 1014.5
20260904085034 18 66 0.0 0.0 0.00 0.00 0.00 99 1014.4
20260904084530 18 48 0.0 0.0 0.00 0.00 0.00 99 1014.6
20260904084026 18 285 0.0 0.0 0.00 0.00 0.00 99 1014.6
20260904083522 18 61 0.0 0.0 0.00 0.00 0.00 99 1014.4
20260904083017 18 60 0.0 0.0 0.00 0.00 0.00 99 1014.5
20260904082512 19 52 0.0 0.0 0.00 0.00 0.00 99 1014.3
20260904082007 19 290 0.0 0.0 0.00 0.00 0.00 99 1014.5
20260904081503 19 294 0.0 0.0 0.00 0.00 0.00 99 1014.7
20260904080958 19 284 0.0 0.0 0.00 0.00 0.00 99 1014.6
20260904080454 19 343 0.0 0.0 0.00 0.00 0.00 99 1014.2
20260904075949 19 138 0.0 0.0 0.00 0.00 0.00 99 1014.2
20260904075445 19 60 0.0 0.0 0.00 0.00 0.00 99 1014.6
20260904074944 19 64 0.0 0.0 0.00 0.00 0.00 99 1014.9
20260904074439 18 293 0.0 0.0 0.00 0.00 0.00 99 1014.8
20260904073934 18 213 0.0 0.0 0.00 0.00 0.00 99 1014.6
20260904073430 18 278 0.0 0.0 0.00 0.00 0.00 99 1014.7
20260904072925 18 281 0.0 0.0 0.00 0.00 0.00 99 1014.5
20260904072421 18 284 0.0 0.0 0.00 0.00 0.00 99 1014.4
20260904071916 18 296 0.0 0.0 0.00 0.00 0.00 99 1014.3
20260904071411 18 313 0.0 0.0 0.00 0.00 0.00 99 1014.0
20260904070906 18 358 0.0 0.0 0.00 0.00 0.00 99 1014.1
20260904070405 18 48 0.0 0.0 0.00 0.00 0.00 99 1014.4
20260904065905 18 48 0.0 0.0 0.00 0.00 0.00 99 1014.5
20260904065401 18 318 0.0 0.0 0.00 0.00 0.00 99 1014.8
20260904064901 18 288 0.0 0.0 0.00 0.00 0.00 99 1014.6
20260904064357 18 288 0.0 0.0 0.00 0.00 0.00 99 1015.0
20260904063852 18 288 0.0 0.0 0.00 0.00 0.00 99 1015.0
20260904063349 18 288 0.0 0.0 0.00 0.00 0.00 99 1015.0
20260904062844 18 277 0.0 0.0 0.00 0.00 0.00 99 1015.0
20260904062340 18 290 0.0 0.0 0.00 0.00 0.00 99 1015.1
20260904061835 18 304 0.0 0.0 0.00 0.00 0.00 99 1015.3
20260904061332 18 304 0.0 0.0 0.00 0.00 0.00 99 1015.5
20260904060827 18 302 0.0 0.0 0.00 0.00 0.00 99 1015.4
20260904060324 18 298 0.0 0.0 0.00 0.00 0.00 99 1015.2
20260904055818 18 293 0.0 0.0 0.00 0.00 0.00 99 1015.2
20260904055313 18 321 0.0 0.0 0.00 0.00 0.00 99 1015.4
20260904054809 18 293 0.0 0.0 0.00 0.00 0.00 99 1015.1
20260904054305 18 46 0.0 0.0 0.00 0.00 0.00 99 1015.0
20260904053754 18 338 0.0 0.0 0.00 0.00 0.00 99 1015.0
20260904053254 18 287 0.0 0.0 0.00 0.00 0.00 99 1015.1
20260904052750 18 291 0.0 0.0 0.00 0.00 0.00 99 1015.2
20260904052246 18 291 0.0 0.0 0.00 0.00 0.00 99 1015.4
20260904051742 18 283 0.0 0.0 0.00 0.00 0.00 99 1015.3
20260904051237 18 286 0.0 0.0 0.00 0.00 0.00 99 1015.3
20260904050732 18 295 0.0 0.0 0.00 0.00 0.00 99 1015.2
20260904050229 18 295 0.0 0.0 0.00 0.00 0.00 99 1015.3
20260904045723 18 295 0.0 0.0 0.00 0.00 0.00 99 1015.3
20260904045218 19 277 0.0 0.0 0.00 0.00 0.00 99 1015.4
20260904044713 19 277 0.0 0.0 0.00 0.00 0.00 99 1015.5
20260904044209 19 293 0.0 0.0 0.00 0.00 0.00 99 1015.2
20260904043705 19 306 0.0 0.0 0.00 0.00 0.00 99 1015.3
20260904043202 19 330 0.0 0.0 0.00 0.00 0.00 99 1015.0
20260904042657 19 277 0.0 0.0 0.00 0.00 0.00 99 1015.2
20260904042153 19 303 0.0 0.0 0.00 0.00 0.00 99 1015.4
20260904041647 19 329 0.0 0.0 0.00 0.00 0.00 99 1015.2
20260904041144 19 314 0.0 0.0 0.00 0.00 0.00 99 1015.5
20260904040640 19 292 0.0 0.0 0.00 0.00 0.00 99 1015.3
20260904040135 19 282 0.0 0.0 0.00 0.00 0.00 99 1015.2
20260904035631 19 285 0.0 0.0 0.00 2.74 2.74 99 1015.0
20260904035131 20 316 0.0 0.0 0.00 2.74 2.74 99 1014.9
20260904034630 19 313 0.0 0.0 0.00 2.74 2.74 99 1015.2
20260904034125 20 343 0.0 0.0 0.00 2.74 2.74 99 1015.1
20260904033621 20 311 0.0 0.0 0.00 2.74 2.74 99 1015.2
20260904033119 20 305 0.0 0.0 0.00 2.74 2.74 99 1014.8
20260904032614 20 302 0.0 0.0 0.00 2.74 2.74 99 1014.9
20260904032113 20 311 0.0 0.0 0.00 2.74 2.74 99 1015.1
20260904031612 20 314 0.0 0.0 0.00 2.74 2.74 99 1015.0
20260904031108 20 292 0.0 0.0 0.00 2.74 2.74 99 1014.9
20260904030604 20 292 0.0 0.0 0.00 2.74 2.74 99 1014.6
20260904030059 20 306 0.0 0.0 0.00 2.74 2.74 99 1014.7
20260904025555 20 329 0.0 0.0 0.00 2.74 2.74 99 1014.7
20260904025049 20 330 0.0 0.0 0.00 2.74 2.74 99 1014.7
20260904024545 20 314 0.0 0.0 0.00 2.74 2.74 99 1014.6
20260904024041 20 294 0.0 0.0 0.00 2.74 2.74 99 1014.8
20260904023537 20 289 0.0 0.0 0.00 2.74 2.74 99 1014.7
20260904023032 20 288 0.0 0.0 0.00 2.74 2.74 99 1014.9
20260904022527 20 294 0.0 0.0 0.00 2.74 2.74 99 1014.5
20260904022024 20 311 0.0 0.0 0.00 2.74 2.74 99 1014.5
20260904021519 20 357 0.0 0.0 0.00 2.74 2.74 99 1014.6
20260904021014 21 289 0.0 0.0 0.00 2.74 2.74 99 1014.7
20260904020515 21 303 0.0 0.0 0.00 2.74 2.74 99 1014.7
20260904020009 21 317 0.0 0.0 0.00 2.74 2.74 99 1014.6
20260904015504 21 317 0.0 0.0 0.00 2.74 2.74 99 1014.6
20260904015002 21 308 0.0 0.0 0.00 2.74 2.74 99 1014.6
20260904014457 21 297 0.0 0.0 0.00 2.74 2.74 99 1014.5
20260904013953 21 274 0.0 0.0 0.00 2.74 2.74 99 1014.3
20260904013449 21 315 0.0 0.0 0.00 2.74 2.74 99 1014.5
20260904012945 21 279 0.0 0.0 0.00 2.74 2.74 99 1014.6
20260904012444 21 347 0.0 0.0 0.00 2.74 2.74 99 1014.6
20260904011939 21 316 0.0 0.0 0.00 2.74 2.74 99 1014.8
20260904011433 21 321 0.0 0.0 0.00 2.74 2.74 99 1014.8
20260904010929 21 295 0.0 0.0 0.00 2.74 2.74 99 1014.5
20260904010426 21 295 0.0 0.0 0.00 2.74 2.74 99 1014.6
20260904005920 21 60 0.0 0.0 0.00 2.74 2.74 99 1014.0
20260904005416 21 62 0.0 0.0 0.00 2.74 2.74 99 1014.1
20260904004916 21 62 0.0 0.0 0.00 2.74 2.74 99 1013.7
20260904004412 21 344 0.0 0.0 0.00 2.74 2.74 99 1013.8
20260904003907 21 32 0.0 0.0 0.00 2.74 2.74 99 1013.5
20260904003403 21 354 0.0 0.0 0.00 2.74 2.74 99 1013.7
20260904002857 21 356 0.0 0.0 0.00 2.74 2.74 99 1013.6
20260904002354 21 306 0.0 0.0 0.00 2.74 2.74 99 1014.0
20260904001853 21 286 0.0 0.0 0.00 2.74 2.74 99 1013.6
20260904001349 21 312 0.0 0.0 0.00 2.74 2.74 99 1013.6
20260904000843 21 358 0.0 0.0 0.00 2.74 2.74 99 1013.5
20260904000343 21 287 0.0 0.0 0.00 2.74 2.74 99 1013.3
20260903235843 21 292 0.0 0.0 0.00 2.74 2.74 99 1013.2
20260903235339 21 287 0.0 0.0 0.00 2.74 2.74 99 1013.1
20260903234838 21 299 0.0 0.0 0.00 2.74 2.74 99 1013.2
20260903234335 21 283 0.0 0.0 0.00 2.74 2.74 99 1012.9
20260903233831 22 288 0.0 0.0 0.00 2.74 2.74 99 1013.0
20260903233326 22 304 0.0 0.0 0.00 2.74 2.74 99 1013.3